GEFSCGP_850_meantemp_138.txt.gz
Temperature
26 27 27 28 29 29 29 29 29 29 30 29 29 29 29 27 26 26 25 23 22 21 20 19 18 18 17 17 17 17 17 17 17 17 17 17 17 17 17 17 17 17 17 17
26 27 28 29 28 28 28 28 29 29 29 29 29 29 29 27 26 25 25 23 23 22 20 19 18 17 17 17 17 17 17 17 17 17 17 17 17 17 17 17 17 17 17 17
27 28 29 28 27 27 28 28 29 29 29 29 28 29 28 27 26 25 24 23 23 22 21 19 18 17 17 17 17 17 17 17 17 17 17 17 17 16 16 16 17 17 17 17
27 28 27 27 28 28 28 29 29 28 28 29 28 28 29 28 27 26 25 24 23 22 21 19 18 17 17 17 17 17 17 17 17 17 17 17 17 16 17 17 17 17 17 16
27 28 27 27 28 28 28 28 28 28 28 29 29 28 29 28 27 27 26 24 23 22 21 20 19 18 17 17 16 16 16 17 17 17 17 17 16 17 17 16 16 16 16 16
28 28 28 28 29 29 28 28 28 28 29 28 28 28 28 29 28 27 26 24 23 22 21 19 19 18 17 17 16 16 16 16 16 16 16 17 16 16 16 16 16 16 16 16
27 28 28 29 28 28 28 28 27 27 27 27 28 28 28 29 28 27 26 25 23 22 21 19 19 18 17 17 16 16 16 16 16 16 16 16 16 16 17 16 16 16 16 16
26 27 28 28 28 28 28 28 27 26 27 28 27 28 29 28 27 26 25 24 23 22 21 20 19 18 17 17 16 16 16 16 16 16 16 16 16 16 16 16 16 16 16 16
27 27 28 29 29 29 28 28 29 28 28 27 28 28 29 28 27 26 25 24 23 22 21 20 19 18 17 17 16 16 16 16 16 16 16 16 16 16 16 16 16 16 16 16
28 27 28 28 28 28 29 29 28 27 26 26 27 28 28 28 27 26 26 25 24 22 21 20 19 18 18 17 17 16 16 16 16 16 16 16 16 16 16 16 16 16 16 16
28 27 27 27 27 28 27 28 28 28 27 26 26 27 28 28 27 27 26 25 24 23 22 21 20 19 18 17 17 16 16 16 16 16 16 16 16 16 16 16 16 16 16 16
27 27 27 27 28 28 28 28 28 27 26 27 27 27 28 27 27 26 26 24 24 23 22 21 20 19 18 17 17 17 16 16 16 16 16 16 16 16 16 16 16 16 16 16
26 26 25 26 26 26 27 27 27 27 27 27 27 27 27 27 27 26 25 24 23 22 22 21 20 19 18 18 17 17 17 17 16 16 16 16 16 16 16 16 16 16 16 16
26 26 26 26 26 27 26 27 27 27 27 27 27 27 27 27 26 25 24 24 23 22 21 21 20 19 18 18 17 17 17 17 17 16 16 16 16 16 16 16 16 16 16 16
25 26 26 26 27 27 27 26 26 26 27 27 27 27 27 26 25 24 23 23 23 22 21 20 20 19 19 18 18 17 17 17 17 17 16 16 16 16 16 16 16 16 16 16
24 25 25 25 26 26 26 26 26 26 26 26 26 26 26 25 24 23 22 22 22 21 21 20 19 19 19 18 18 18 17 17 17 17 17 17 16 16 16 16 16 16 16 16
24 24 24 25 25 25 24 25 26 26 26 26 26 25 25 24 23 22 21 21 21 21 20 19 19 19 18 18 18 18 18 17 17 17 17 17 16 17 17 16 16 16 16 16
23 23 24 24 24 23 25 25 25 24 25 25 25 24 24 23 21 20 19 19 19 19 19 19 18 18 18 18 18 18 18 17 17 17 17 17 17 17 17 16 16 16 16 16
22 22 23 23 23 24 23 23 23 23 23 23 23 23 22 21 21 19 17 17 17 17 17 17 18 18 18 18 18 18 17 17 17 17 17 17 17 17 17 16 17 17 16 16
21 21 22 22 22 22 23 22 21 22 21 21 21 21 21 21 22 20 16 16 16 16 16 16 17 17 17 17 17 17 17 17 17 17 17 17 17 17 17 17 17 17 16 16
21 21 21 21 22 22 21 21 21 21 20 19 19 19 19 19 18 16 15 15 15 15 15 16 16 16 16 16 17 17 17 16 16 16 16 16 16 17 17 16 16 16 16 16
21 21 20 21 21 21 20 20 20 19 18 18 17 18 17 16 15 15 14 14 14 14 15 15 15 15 15 16 16 16 16 16 16 16 16 16 16 16 16 16 15 15 15 15
21 20 20 20 19 18 18 17 16 16 16 16 16 16 16 15 15 14 14 14 13 13 14 14 14 14 14 14 15 15 15 15 15 15 15 15 15 15 15 15 15 15 14 14
19 19 19 18 18 17 16 16 15 15 15 15 15 15 15 14 14 13 13 13 13 13 13 13 13 13 13 14 14 14 14 14 14 14 14 14 14 14 14 14 14 14 14 14
19 18 18 18 17 16 15 14 14 14 14 14 14 14 13 13 13 12 12 12 12 12 12 12 12 12 12 13 13 13 13 14 14 14 13 13 14 13 13 13 13 13 13 13
18 17 17 17 16 16 14 13 13 13 13 13 13 12 12 12 11 11 11 11 11 11 11 11 12 12 12 12 12 12 13 13 13 13 13 13 13 13 13 13 12 12 12 12

GEFSCGP_850_meantemp_144.txt.gz
Temperature
28 28 28 29 30 31 31 31 31 31 32 32 32 32 32 31 30 30 29 28 27 26 24 23 22 21 20 20 19 19 18 18 18 18 18 18 18 18 18 18 18 18 18 18
28 28 29 31 31 31 31 30 31 31 32 32 32 31 32 31 30 30 29 28 27 25 24 22 21 21 20 19 19 18 18 18 18 18 18 18 18 18 18 18 17 17 17 18
28 30 31 31 31 31 31 31 31 31 32 32 31 30 30 30 29 29 29 28 27 26 24 22 21 20 20 19 19 18 18 18 18 18 18 18 17 17 17 17 17 17 17 18
29 31 31 31 30 31 30 32 32 31 31 30 30 28 28 28 27 27 28 27 27 26 24 22 21 20 19 19 18 18 18 18 18 17 17 17 17 17 17 17 17 17 17 17
29 30 30 30 31 31 31 32 32 31 30 29 29 28 28 28 27 26 27 27 27 26 24 22 21 20 19 19 18 18 18 18 18 17 17 17 17 17 17 17 17 17 17 17
31 32 32 31 32 32 32 31 31 30 29 27 27 27 27 28 27 27 28 27 27 25 24 23 21 20 19 19 18 18 18 17 17 17 17 17 17 17 17 17 17 17 17 17
29 31 32 32 31 31 31 30 28 27 26 26 27 27 27 29 29 29 29 28 27 25 24 22 21 20 19 19 18 18 17 17 17 17 17 17 17 17 17 17 17 17 17 17
28 29 31 32 31 30 30 30 27 26 25 25 25 25 27 29 30 29 29 28 27 25 24 22 21 20 19 19 18 18 17 17 17 17 17 17 17 17 17 17 17 17 17 17
29 29 31 32 32 31 30 30 30 28 26 24 23 24 26 28 29 29 29 28 26 25 24 23 22 20 19 19 18 18 17 17 17 17 17 17 17 17 17 17 17 17 17 17
30 29 31 32 32 32 31 30 29 28 26 25 24 24 24 26 27 28 28 27 26 25 24 23 22 20 20 19 18 18 17 17 17 17 17 16 17 17 17 17 17 17 17 17
30 29 29 30 30 30 30 30 29 28 28 27 25 24 26 25 27 27 27 27 26 25 24 23 22 20 20 19 18 18 17 17 17 17 16 16 17 17 17 17 17 17 17 17
30 29 28 29 31 31 30 30 29 27 27 27 26 25 25 24 26 26 26 26 26 25 25 23 22 21 20 19 18 18 17 17 17 17 17 17 17 17 17 17 17 17 17 17
29 28 27 27 28 29 29 30 29 29 28 27 26 25 25 25 25 26 27 26 26 25 24 23 22 21 20 19 18 18 17 17 17 17 17 17 17 17 17 17 17 17 17 17
29 28 27 26 26 27 27 28 29 28 27 27 27 25 25 25 25 26 26 26 25 25 24 23 22 21 20 19 18 18 18 17 17 17 17 17 17 17 17 17 17 17 17 17
28 27 28 27 27 27 26 27 28 28 28 27 26 25 25 24 25 25 25 25 25 24 24 22 21 21 20 19 19 18 18 18 17 17 17 17 17 17 17 17 17 17 17 17
27 26 27 26 27 27 26 27 27 27 28 27 26 25 25 24 24 24 24 24 24 23 23 22 21 20 20 19 19 18 18 18 18 18 17 17 17 17 17 17 17 17 17 17
26 25 25 25 26 26 25 26 27 27 28 27 26 25 25 24 24 23 23 23 23 22 22 21 21 20 20 19 19 19 19 18 18 18 18 18 17 17 17 17 17 17 17 17
24 24 24 25 25 24 26 27 27 27 27 27 26 25 24 23 22 22 21 21 21 21 21 20 20 20 19 19 19 19 19 18 18 18 18 18 17 17 17 17 17 17 17 17
24 24 24 24 24 24 25 26 26 25 25 25 24 24 23 22 22 20 20 19 19 19 19 19 19 20 19 19 19 19 19 18 18 18 18 17 17 17 17 17 17 17 17 17
24 24 23 23 23 23 23 24 25 25 23 23 23 23 22 22 21 19 18 18 18 18 18 18 19 19 19 19 19 19 18 18 18 18 18 17 17 17 17 17 17 17 17 17
22 22 22 22 22 22 21 22 24 23 21 22 21 21 21 20 19 18 18 17 17 17 17 17 18 18 18 18 18 18 18 17 17 17 17 17 17 17 17 17 17 16 16 16
21 22 22 22 21 20 20 21 20 19 20 20 20 19 19 18 17 17 16 16 16 16 16 16 16 16 16 17 17 17 17 17 17 17 17 17 17 16 16 16 16 16 16 16
22 21 21 20 19 19 18 18 18 18 19 19 18 18 18 17 17 16 15 15 15 15 15 15 15 15 15 15 16 16 15 16 16 16 16 16 16 16 15 15 15 15 15 15
21 21 20 19 19 18 18 18 17 17 17 17 17 17 17 16 15 15 14 14 14 14 14 14 14 14 14 14 14 14 15 15 15 15 15 15 15 15 15 15 15 14 14 14
19 20 19 18 18 18 17 16 16 16 16 16 16 16 15 14 14 13 13 13 13 13 13 13 13 13 13 13 13 14 14 14 14 14 14 14 14 14 14 14 14 14 14 13
19 19 19 18 18 17 16 15 15 15 15 15 15 14 14 13 13 12 12 12 12 12 12 12 12 12 12 12 13 13 13 13 13 14 14 14 14 14 14 13 13 13 13 13

GEFSCGP_850_meantemp_150.txt.gz
Temperature
24 21 20 21 22 23 24 24 24 25 26 26 25 25 25 25 25 24 23 23 23 23 23 23 22 21 21 21 20 20 19 19 19 18 18 18 18 18 18 18 18 18 18 18
22 21 22 23 24 24 24 24 24 25 26 26 25 24 24 24 24 24 23 23 23 22 22 22 22 21 21 21 20 20 19 19 19 19 18 18 18 18 18 18 18 18 18 18
21 22 24 25 25 25 25 24 24 25 26 26 25 23 23 23 23 23 23 23 23 22 22 22 21 21 21 21 20 20 19 19 19 19 18 18 18 18 17 17 18 18 18 18
22 24 25 25 25 25 24 26 26 26 24 22 24 22 22 22 22 22 22 22 22 22 22 22 21 21 21 21 20 20 19 19 19 18 18 18 18 18 18 18 18 17 17 17
22 24 25 25 26 26 25 26 26 26 24 22 22 21 21 20 21 21 21 22 22 21 21 21 21 22 21 21 20 20 19 19 19 18 18 18 18 18 18 18 18 17 17 17
24 25 26 26 27 27 27 26 24 22 20 20 21 21 21 20 20 21 21 22 22 21 21 21 21 21 21 20 20 19 19 19 18 18 18 18 18 18 18 18 17 17 17 17
23 25 26 27 26 26 26 23 21 21 19 20 20 21 20 21 21 21 21 21 21 21 21 21 20 20 20 20 19 19 19 18 18 18 18 18 18 18 18 18 18 17 17 17
22 22 25 26 25 25 24 22 21 21 20 19 20 20 20 21 21 21 21 22 21 20 20 21 20 20 20 20 19 19 18 18 18 18 17 17 17 17 18 18 17 17 18 18
22 22 25 27 27 26 24 22 21 19 20 19 19 20 20 20 21 21 21 20 20 20 20 20 20 20 20 19 19 19 18 18 18 17 17 17 17 17 17 17 17 17 17 17
22 23 25 26 27 26 25 23 19 19 19 20 20 20 19 19 20 20 19 19 19 20 20 20 20 20 19 19 19 18 18 18 18 17 17 17 17 17 17 17 17 17 17 17
22 22 23 25 25 24 24 23 20 18 19 19 19 19 20 19 19 19 18 19 19 19 19 19 20 20 19 19 19 18 18 18 17 17 17 17 17 17 17 17 17 17 17 17
21 20 21 23 24 25 24 23 20 20 20 19 18 19 20 19 19 19 19 19 19 19 19 19 19 19 19 18 18 18 18 17 17 17 17 17 17 17 17 17 17 17 17 17
22 20 20 21 22 23 24 23 21 19 18 18 19 19 20 18 18 19 19 19 19 19 19 19 19 19 19 18 18 18 17 17 17 17 17 17 17 17 17 17 17 17 17 17
22 19 20 21 21 22 23 23 22 20 19 19 20 19 19 18 18 18 19 19 19 19 19 19 19 19 19 18 18 18 18 17 17 17 17 17 17 17 17 17 17 17 17 17
20 19 20 21 22 23 23 23 23 22 20 20 20 19 19 18 18 18 19 19 19 19 19 19 19 19 18 18 18 18 18 17 17 17 17 17 17 17 17 17 17 17 17 16
18 19 19 21 22 23 23 23 23 23 22 21 20 19 18 18 18 18 18 19 18 19 19 19 19 19 18 18 18 18 18 18 17 17 17 17 17 17 17 17 17 17 17 16
17 17 18 19 21 21 20 21 21 21 21 20 19 18 17 17 17 17 17 18 18 18 18 19 19 19 19 18 18 18 18 18 18 18 17 17 17 17 17 17 17 17 17 16
17 16 15 17 19 19 19 20 21 20 19 19 18 17 17 16 16 17 17 17 17 18 18 18 18 18 18 18 18 18 18 18 18 18 18 17 17 17 17 17 17 17 17 16
16 16 15 15 17 18 19 19 19 19 17 18 17 17 16 16 16 16 17 17 17 17 17 18 18 18 18 18 18 18 18 18 17 17 17 17 17 17 17 17 17 16 16 16
16 15 16 16 17 18 18 19 19 19 17 17 16 16 16 16 15 15 16 17 17 17 17 17 18 18 18 17 18 18 17 17 17 17 17 17 17 17 17 17 17 16 16 16
15 15 16 16 16 16 16 17 19 18 16 16 16 16 16 15 14 15 15 16 16 16 16 16 17 17 17 17 17 17 17 17 17 17 17 17 17 17 17 17 16 16 16 16
15 15 15 15 15 16 15 16 16 15 15 15 15 15 15 14 14 14 14 15 15 15 16 16 16 16 16 16 17 17 16 16 16 16 16 16 16 16 16 16 16 16 15 15
14 14 13 14 14 14 14 14 15 15 15 15 15 15 14 14 13 13 13 14 14 14 15 15 15 15 15 15 16 16 15 15 16 16 16 16 16 16 15 15 15 15 15 15
14 14 13 13 13 13 14 14 15 15 15 15 15 14 14 13 13 13 13 13 13 13 14 14 14 14 14 14 14 15 15 15 15 15 15 15 15 15 15 15 14 14 14 14
13 14 13 13 13 13 13 14 14 14 14 14 14 14 13 13 12 12 12 12 12 13 13 13 13 13 13 13 13 14 14 14 14 14 14 14 14 14 14 14 13 13 13 13
12 13 13 13 13 12 13 13 14 14 13 13 13 13 12 12 12 12 11 12 12 12 12 12 12 12 12 13 13 13 13 14 14 13 13 13 13 13 13 13 13 12 12 12

GEFSCGP_850_meantemp_156.txt.gz
Temperature
20 18 17 18 19 21 22 22 22 22 23 23 22 21 21 21 21 21 21 21 21 21 22 21 21 21 21 20 20 20 20 19 19 19 18 18 18 18 18 17 17 17 17 17
18 18 19 20 20 21 22 22 21 21 23 23 21 21 21 20 20 21 21 21 21 21 21 21 21 20 20 20 20 20 20 19 19 19 19 18 18 18 18 17 17 17 17 17
19 20 21 21 21 21 21 21 21 22 22 22 22 21 20 20 20 21 21 21 21 21 21 21 21 21 20 20 20 20 20 19 19 18 18 18 17 17 17 17 17 17 17 17
20 21 22 21 21 21 20 22 22 22 21 20 21 20 20 19 19 20 20 21 21 21 21 21 21 21 20 20 20 20 19 19 19 19 18 18 17 17 18 18 18 17 17 17
20 21 21 21 22 22 21 22 22 22 21 20 20 20 19 19 20 20 19 20 21 21 21 21 21 21 21 20 20 20 19 19 19 19 18 18 18 18 17 17 18 17 17 17
21 22 22 22 23 22 22 21 20 17 18 19 20 19 19 18 19 19 19 20 21 21 21 21 21 21 20 20 20 19 19 19 18 18 18 18 18 17 17 17 17 17 17 17
21 22 22 23 23 23 22 19 18 19 18 18 19 19 18 19 19 19 19 19 20 21 21 21 21 20 20 20 20 19 19 18 18 18 18 18 18 18 17 17 17 17 17 17
20 20 22 22 22 21 20 19 19 19 19 18 18 18 19 19 19 19 19 19 20 20 20 20 20 20 20 20 20 19 19 19 18 18 18 18 17 17 18 17 17 17 17 17
19 20 22 22 22 21 20 19 19 17 18 18 18 18 18 19 19 18 18 18 18 19 19 20 20 20 20 19 19 19 19 18 18 18 17 17 17 17 17 17 17 17 17 17
19 20 22 23 22 21 20 17 16 17 18 19 20 19 18 19 18 18 17 17 18 18 19 19 19 20 20 19 19 19 18 18 18 17 17 17 17 17 17 17 17 17 17 17
19 20 21 22 22 21 19 18 16 15 17 18 19 19 19 18 18 18 17 18 18 18 19 19 19 19 19 19 19 18 18 18 17 17 17 17 17 17 17 17 17 17 17 17
18 17 18 20 21 21 20 18 17 18 18 16 18 18 19 18 17 17 17 18 18 18 18 19 19 19 19 19 18 18 18 18 17 17 17 17 17 17 17 17 17 16 16 16
18 17 18 20 20 21 20 19 17 16 15 15 18 19 18 17 17 17 17 17 18 18 18 19 19 19 19 19 18 18 18 18 17 17 17 17 17 17 17 17 16 16 16 16
18 16 18 19 19 20 20 19 18 17 17 17 18 19 19 17 17 17 17 17 17 18 18 18 19 19 19 18 18 18 18 17 17 17 17 16 16 17 17 16 16 16 16 16
17 17 18 19 20 20 20 20 19 19 18 18 19 18 18 17 16 17 17 17 17 17 17 18 18 18 18 18 18 18 18 17 17 17 16 16 16 16 16 16 16 16 16 16
15 17 18 19 19 20 20 20 20 20 19 19 19 18 17 16 16 16 16 16 16 17 17 18 18 18 18 18 18 17 18 17 17 17 16 16 16 16 16 16 16 16 16 16
14 16 16 17 18 19 19 18 19 19 18 18 18 18 16 15 15 15 15 16 16 17 17 17 17 18 18 18 18 18 17 17 17 17 17 16 16 16 16 16 16 16 16 16
14 14 14 15 18 18 18 17 18 18 17 17 17 16 15 15 14 15 16 16 16 16 17 17 17 17 17 17 17 17 17 17 17 17 17 16 16 16 16 16 16 16 16 16
13 14 14 14 16 17 18 17 17 17 17 16 16 15 15 14 15 14 15 15 16 16 17 17 17 17 17 17 17 17 17 17 17 17 17 17 16 16 16 16 16 16 16 16
13 13 13 14 16 16 17 17 17 17 17 16 15 14 14 15 15 14 14 15 15 16 16 16 17 17 17 17 17 17 17 16 16 16 16 16 16 16 16 16 16 16 15 15
14 13 13 14 15 16 16 15 17 17 17 16 15 14 14 14 14 14 14 14 15 15 15 16 16 16 16 16 16 16 16 16 16 16 16 16 16 16 16 16 16 15 15 15
13 13 13 13 15 15 14 15 16 15 15 15 14 14 14 13 14 14 14 14 14 14 15 15 15 15 15 15 16 16 16 16 16 16 16 16 16 16 16 15 15 15 15 15
12 12 12 13 13 13 13 13 14 14 14 14 14 14 14 13 13 13 13 13 13 14 14 15 15 15 15 15 15 15 15 15 15 15 15 15 15 15 15 15 14 14 14 14
12 11 12 12 12 12 12 13 13 14 14 14 14 14 14 13 13 13 13 13 13 13 13 14 14 14 14 14 14 14 15 15 15 15 15 14 14 14 14 14 14 14 13 13
12 12 12 12 12 12 12 12 13 14 14 14 13 13 13 13 12 12 12 12 12 12 13 13 13 13 13 14 14 14 14 14 14 14 14 14 14 13 13 13 13 13 12 12
11 11 12 12 12 11 12 12 13 13 13 13 13 12 12 12 12 12 12 12 12 12 12 12 12 12 13 13 13 13 13 13 14 13 13 13 13 13 12 12 12 11 11 11

GEFSCGP_850_meantemp_162.txt.gz
Temperature
25 26 26 28 28 29 29 29 29 30 30 29 30 30 30 29 28 28 27 26 24 23 22 21 20 19 19 19 19 19 19 19 19 18 18 18 17 18 17 17 17 17 17 17
25 26 28 28 28 28 28 28 29 29 29 29 29 29 30 29 28 28 27 26 25 24 22 21 20 19 19 19 19 19 19 19 19 19 19 18 18 18 18 17 17 17 17 17
26 27 28 27 27 27 27 28 29 28 28 29 29 29 29 29 28 27 26 26 25 24 23 21 20 19 19 19 20 19 19 19 19 19 18 18 17 17 17 17 17 18 17 17
26 27 26 26 27 27 27 28 28 28 28 29 29 29 29 29 28 28 27 26 25 25 23 22 20 20 20 20 20 20 19 19 19 19 18 18 18 17 17 18 17 18 18 17
26 27 26 26 27 27 28 28 28 28 28 28 28 29 30 29 28 28 28 26 25 25 24 22 21 20 20 20 20 19 19 19 19 19 18 18 18 18 18 17 17 17 17 17
27 27 27 27 28 28 28 27 27 28 28 27 28 28 29 30 29 29 28 26 25 24 24 22 21 20 20 19 19 19 19 19 19 18 18 18 18 18 17 17 17 17 17 17
26 26 27 28 27 27 27 27 26 26 27 27 28 28 29 29 29 28 27 26 25 24 23 22 21 20 20 19 19 19 19 19 18 18 18 18 18 18 18 18 17 17 17 17
25 26 27 27 28 27 27 28 27 27 27 28 27 28 29 28 27 26 26 25 24 24 23 22 21 20 20 19 19 19 19 19 18 18 18 18 17 17 17 17 17 17 17 17
26 26 28 28 28 28 27 28 30 29 28 28 28 28 28 27 27 27 26 25 24 23 23 22 21 20 20 19 19 19 19 18 18 18 18 17 17 17 17 17 17 17 17 17
27 26 27 27 28 28 29 29 28 28 27 27 28 28 29 28 27 27 26 25 24 23 22 21 21 20 20 19 19 19 18 18 18 18 17 17 17 17 17 17 17 17 17 17
27 26 26 27 26 27 27 28 28 28 28 28 27 28 29 28 28 27 26 24 23 22 22 21 20 19 19 19 19 19 18 18 18 18 18 17 17 17 17 17 17 17 17 17
27 27 27 27 28 28 28 28 28 27 27 28 28 28 28 28 27 26 25 24 23 22 21 21 20 19 19 19 19 18 18 18 18 17 17 17 17 17 16 16 16 16 17 16
26 26 25 26 26 27 27 28 28 28 28 28 28 27 27 27 26 25 24 23 22 21 21 20 19 19 19 19 18 18 18 18 18 17 17 17 17 17 17 17 17 16 16 16
26 26 26 26 27 27 27 27 28 28 27 28 28 28 27 26 26 25 23 22 21 20 20 19 18 18 18 18 18 18 18 17 17 17 17 17 17 17 17 16 16 16 16 16
25 25 26 27 28 28 28 27 27 28 28 28 28 28 28 26 26 24 22 22 21 20 19 19 18 18 17 17 17 17 17 17 17 17 17 17 17 16 16 16 16 16 16 16
24 25 26 26 27 27 27 28 28 28 28 28 28 27 27 25 24 23 22 21 21 20 19 18 18 17 17 17 17 17 17 17 17 17 17 17 16 16 16 16 16 16 16 16
24 24 24 25 26 26 26 27 27 28 28 28 28 27 25 24 23 22 21 20 20 19 18 18 17 17 17 17 17 17 17 17 17 17 16 16 16 16 16 16 16 16 16 16
23 23 24 25 25 24 26 26 27 27 27 27 26 25 24 23 20 19 19 19 19 18 17 17 17 16 16 16 16 16 16 16 16 16 16 16 16 16 16 15 15 16 16 15
22 23 24 25 24 25 24 25 25 25 25 25 25 24 22 20 19 18 17 17 17 17 16 16 16 16 16 16 16 16 16 16 16 16 16 16 16 16 16 15 15 15 15 15
21 22 24 24 24 24 25 24 24 25 24 24 23 22 21 21 23 19 16 16 16 15 15 15 15 15 15 16 16 16 16 16 16 16 16 16 16 16 15 15 15 15 15 15
22 22 23 24 24 24 23 23 23 24 23 22 22 21 21 22 21 17 15 15 15 15 15 15 15 15 15 15 15 15 15 15 15 15 15 15 16 15 15 15 15 15 15 15
22 22 22 23 23 23 21 22 22 21 19 20 20 20 19 17 16 15 15 14 14 14 14 14 14 14 14 15 15 15 15 15 15 15 15 15 15 15 15 15 15 14 14 14
21 21 22 22 21 19 19 19 18 18 18 18 19 18 17 16 15 14 14 14 14 14 14 14 14 14 14 14 14 14 14 14 14 14 14 14 14 14 14 14 14 14 14 14
19 19 20 19 19 18 17 17 17 17 17 17 17 16 16 15 14 14 14 13 13 13 13 13 13 13 13 13 14 14 14 14 14 14 14 14 14 13 13 13 13 13 13 13
19 19 19 19 18 17 16 16 15 15 16 16 15 15 15 14 14 13 13 13 13 13 13 13 13 13 13 13 13 13 13 13 13 13 13 13 13 13 13 13 12 12 12 12
18 18 19 19 17 18 16 15 14 14 14 14 14 14 14 14 13 13 12 12 12 12 12 12 12 13 12 13 13 13 13 13 13 12 12 12 12 12 12 12 11 11 11 11

GEFSCGP_850_meantemp_168.txt.gz
Temperature
28 28 28 29 30 31 32 32 32 33 34 33 33 32 33 33 33 32 31 30 28 27 26 24 23 22 21 21 20 20 20 20 19 19 19 19 19 19 19 19 19 19 19 18
28 27 29 31 31 31 31 31 32 33 34 33 32 32 33 33 33 32 31 30 29 27 26 24 23 22 21 21 20 20 20 20 20 19 19 19 19 19 19 19 19 18 18 18
28 29 30 30 31 31 31 31 32 32 33 32 31 31 32 32 32 32 31 30 29 28 26 24 23 22 21 20 20 20 20 20 20 20 19 19 18 18 18 18 18 18 18 18
29 30 31 30 30 31 30 32 32 32 31 31 31 30 31 31 31 32 31 30 29 28 26 25 23 22 21 21 20 20 20 20 20 20 19 19 19 19 19 19 19 18 18 18
29 30 30 30 31 31 31 32 32 31 31 30 31 30 30 31 30 30 31 30 30 28 27 25 24 22 22 21 20 20 20 20 20 20 20 19 19 19 19 19 19 18 18 18
30 31 31 31 32 32 32 31 31 30 30 28 30 30 29 30 29 29 30 30 29 28 27 25 24 23 22 21 20 20 20 20 20 20 19 19 19 19 19 18 18 18 18 18
29 30 31 32 31 31 31 30 28 28 28 28 30 30 29 29 29 29 30 30 29 28 27 25 24 23 22 21 20 20 20 20 20 19 19 19 19 19 19 18 18 18 18 18
27 28 30 31 30 30 30 30 28 27 28 29 30 29 29 30 29 29 29 29 29 28 27 26 24 23 22 21 20 20 20 20 20 19 19 19 19 19 18 18 18 18 18 18
28 28 31 31 31 31 30 30 31 30 29 29 29 28 29 30 30 30 29 29 29 28 27 26 25 23 22 21 21 20 20 20 19 19 19 19 19 19 18 18 18 18 18 18
30 29 30 31 31 31 31 31 30 29 28 28 28 27 28 29 29 30 30 29 28 27 26 25 24 23 22 22 21 20 20 19 19 19 19 19 19 18 18 18 18 18 18 17
30 29 29 30 29 30 30 30 30 30 29 28 27 27 30 29 30 30 30 29 28 27 26 25 24 23 22 21 21 20 20 19 19 19 19 19 18 18 18 18 18 18 18 18
29 29 29 29 31 31 31 30 30 28 28 28 27 26 29 29 30 30 29 28 27 26 26 24 23 23 22 21 21 20 20 19 19 19 19 18 18 18 18 18 18 18 18 17
29 28 27 28 29 30 30 30 30 30 29 28 27 27 28 29 29 29 28 27 26 25 25 23 23 22 21 21 20 20 20 19 19 19 19 18 18 18 18 18 18 17 17 17
29 28 27 27 28 29 29 30 30 30 29 28 28 27 28 28 28 28 27 26 25 24 23 22 22 21 21 20 20 20 19 19 19 19 18 18 18 18 17 17 17 17 17 17
29 27 27 28 29 29 29 30 30 30 30 29 29 28 27 27 27 27 26 26 25 24 23 22 21 20 20 20 19 19 19 19 19 18 18 18 18 18 17 17 17 17 17 17
28 27 27 27 28 29 29 29 30 30 30 30 29 27 28 27 27 26 26 25 24 23 22 21 21 20 20 19 19 19 19 18 18 18 18 18 17 17 17 17 17 17 17 17
27 26 25 26 27 27 27 28 29 30 30 29 28 26 26 26 26 25 25 24 23 22 22 21 20 20 19 19 18 18 18 18 18 18 17 17 17 17 17 17 17 16 16 16
25 25 25 25 26 24 27 29 29 29 29 29 28 26 26 25 24 24 24 23 22 21 21 20 19 19 19 18 18 18 18 18 17 17 17 17 17 17 16 16 16 16 16 16
26 25 25 24 24 25 27 28 28 28 27 27 27 26 25 24 23 23 22 21 21 20 19 19 18 18 18 18 17 17 17 17 17 17 16 16 16 16 16 16 16 16 16 16
25 25 24 24 23 23 25 27 27 27 25 25 25 25 24 24 24 22 20 20 19 19 18 18 17 17 17 17 17 17 17 16 16 16 16 16 16 16 16 16 16 15 15 15
24 24 23 23 23 23 24 25 26 25 23 24 23 23 23 23 22 20 19 18 18 17 17 17 17 16 16 16 16 16 16 16 16 16 16 16 15 16 16 15 15 15 15 15
24 24 23 23 22 22 23 24 24 22 23 23 23 22 21 20 19 18 18 17 17 17 16 16 16 16 16 16 16 15 15 15 15 15 15 15 15 15 15 15 15 15 15 14
24 23 22 21 21 20 21 21 21 22 22 22 21 21 20 19 18 17 17 17 17 16 16 15 15 15 15 15 15 15 15 15 15 15 15 15 15 15 14 14 14 14 14 13
23 23 22 21 20 20 21 21 21 21 21 21 20 20 19 18 17 17 16 16 16 15 15 15 15 14 14 14 14 14 14 14 14 14 14 14 14 14 14 14 14 13 13 13
21 22 21 20 20 20 20 20 20 20 20 20 19 19 18 17 16 16 15 15 15 15 14 14 14 14 14 14 14 14 14 14 14 14 13 13 13 13 13 13 13 13 12 12
21 20 20 19 19 20 19 19 19 19 19 18 18 17 17 16 15 15 15 14 14 14 14 14 13 13 13 13 13 13 13 13 13 13 13 13 13 12 12 12 12 11 12 11

GEFSCGP_850_meantemp_174.txt.gz
Temperature
24 21 20 21 21 23 24 24 24 26 27 27 26 26 26 26 26 25 24 24 23 23 24 23 23 22 22 21 21 21 21 20 20 20 19 19 19 19 19 18 18 19 18 18
22 21 22 23 24 24 24 24 24 25 27 27 26 26 26 25 25 25 24 24 23 23 23 23 23 22 22 21 21 21 21 20 20 20 20 19 19 19 19 19 18 19 19 18
21 22 24 24 24 24 24 24 24 25 26 27 26 25 25 25 26 26 25 25 24 23 23 23 22 22 22 22 21 21 21 21 20 20 20 19 19 18 18 18 18 18 18 18
22 23 25 24 24 25 23 25 26 26 25 23 25 23 24 24 24 24 24 24 24 23 23 23 23 22 22 22 21 21 21 21 20 20 20 19 19 19 19 19 19 18 18 18
22 24 24 24 25 25 24 26 26 26 25 23 24 23 22 23 23 23 24 24 24 24 23 23 23 23 23 22 21 21 21 20 20 20 20 19 19 19 19 19 19 19 18 18
23 25 25 25 26 26 26 26 25 22 21 22 23 23 22 22 23 23 23 24 24 24 23 23 23 23 22 22 21 21 20 20 20 20 19 19 19 19 19 19 19 18 18 18
23 24 25 26 25 26 26 22 21 21 20 21 22 23 21 22 23 23 23 24 25 24 23 23 23 22 22 21 21 21 20 20 20 19 19 19 19 19 19 19 19 18 18 18
21 21 24 25 25 24 23 21 20 21 21 20 22 22 22 23 24 25 25 25 24 24 23 23 23 23 22 22 21 21 20 20 20 19 19 19 19 18 18 19 18 18 18 18
20 21 25 26 26 25 24 22 21 20 21 21 21 22 23 23 23 23 24 24 23 23 23 23 23 22 22 22 21 21 21 20 20 19 19 19 19 18 18 18 18 18 18 18
21 22 24 26 27 26 24 23 20 20 20 21 22 22 21 22 22 22 22 22 23 23 22 22 22 22 22 22 21 21 21 20 20 19 19 19 19 18 18 18 18 18 18 17
22 21 22 24 24 24 24 23 21 18 19 20 21 21 22 21 21 21 21 22 22 22 22 22 22 22 22 21 21 20 20 20 20 19 19 19 19 18 18 18 18 18 17 17
21 19 20 22 24 25 24 23 20 20 20 19 19 20 22 21 21 21 21 22 22 22 22 22 22 22 21 21 21 20 20 20 20 19 19 19 19 18 18 18 17 17 17 17
21 19 20 21 22 24 24 23 21 19 18 18 19 21 22 21 21 22 22 21 21 22 22 22 21 21 21 21 20 20 20 20 19 19 19 19 18 18 18 18 17 17 17 17
22 18 19 20 21 22 24 24 23 20 19 19 20 21 21 20 20 20 21 21 21 21 21 21 21 21 21 20 20 20 20 19 19 19 19 19 18 18 18 17 17 17 17 17
20 19 20 21 23 24 24 24 24 22 20 20 21 21 20 20 20 20 20 21 20 21 21 21 21 21 20 20 20 19 19 19 19 19 18 18 18 18 18 17 17 17 17 17
17 19 20 22 24 24 24 24 24 24 23 22 21 21 20 20 21 20 20 20 20 20 20 20 20 20 20 19 19 19 19 19 19 18 18 18 18 17 17 17 17 17 17 16
17 18 18 19 22 23 22 22 23 23 22 22 21 20 20 19 20 20 20 20 20 20 20 20 20 20 19 19 19 19 18 18 18 18 18 17 17 17 17 17 17 16 16 16
17 17 16 18 21 21 21 21 22 22 21 21 21 20 20 19 20 20 20 20 20 20 20 19 19 19 19 19 19 18 18 18 18 17 17 17 17 17 16 16 16 16 16 16
17 17 16 17 19 20 21 21 21 21 19 20 20 20 19 19 19 18 19 20 20 19 19 19 19 19 19 18 18 18 18 17 17 17 16 16 16 16 16 16 16 16 16 16
16 16 16 17 19 19 19 20 21 20 19 19 19 19 19 19 18 17 18 19 19 19 19 18 18 18 18 18 18 17 17 17 16 16 16 16 16 16 16 16 15 15 15 15
17 16 16 17 18 18 18 19 21 19 18 18 19 19 19 17 18 17 18 18 18 18 18 18 17 17 17 17 17 17 16 16 16 16 16 15 15 15 15 15 15 15 15 15
16 16 16 16 17 18 18 18 18 17 18 18 18 18 18 18 17 17 17 17 17 17 17 17 17 17 16 16 16 16 16 15 15 15 15 15 15 15 15 15 14 14 14 14
15 15 14 15 15 16 17 17 18 18 18 18 17 18 18 17 16 16 16 16 16 16 16 16 16 16 15 15 15 15 15 15 15 15 15 14 14 14 14 14 14 14 14 14
15 14 14 14 15 15 17 17 18 18 18 18 18 18 18 17 16 16 16 15 15 15 15 15 15 15 15 14 15 15 15 15 14 14 14 14 14 14 14 13 13 13 13 13
14 14 14 14 15 15 16 17 17 17 17 17 17 17 17 17 16 15 15 15 15 14 14 14 15 14 14 14 14 14 14 14 14 14 13 13 13 13 13 13 12 12 12 12
13 14 14 14 14 14 15 17 17 17 17 17 16 16 16 16 15 15 14 14 14 14 14 14 14 14 14 14 13 13 13 14 14 13 13 13 13 12 12 12 12 11 11 11

GEFSCGP_850_meantemp_180.txt.gz
Temperature
20 18 18 18 20 21 22 22 22 23 23 23 23 22 22 22 22 22 21 21 21 22 22 21 21 21 21 21 21 20 20 20 20 19 19 19 19 19 18 18 18 18 18 18
19 19 19 20 20 22 22 22 22 22 23 24 23 22 22 21 22 22 22 22 22 22 22 21 21 21 21 21 21 21 20 20 20 20 19 19 19 19 19 18 18 18 18 18
19 20 20 21 21 21 22 21 22 22 22 22 23 22 22 22 22 22 22 22 23 22 22 22 22 22 22 22 21 21 21 20 20 20 19 19 18 18 18 18 18 18 18 18
20 20 21 21 21 21 21 22 22 23 22 20 22 21 21 21 21 21 22 22 22 23 23 22 22 22 22 22 22 21 21 20 20 19 19 19 19 19 19 19 18 18 18 18
19 21 21 21 21 21 21 22 22 22 21 20 21 21 20 20 21 21 21 22 23 23 23 23 23 23 23 22 22 21 21 20 20 19 19 19 19 19 19 19 18 18 18 18
20 21 21 22 22 22 22 21 19 17 18 20 20 20 20 19 20 21 21 22 23 23 23 23 23 22 22 22 22 21 21 20 20 19 19 19 19 19 19 19 18 18 18 18
21 21 22 22 22 22 21 19 18 19 18 18 19 20 19 20 20 21 21 22 23 23 23 23 22 22 22 21 21 21 21 20 20 20 19 19 19 19 19 19 19 18 18 18
19 19 21 21 21 20 19 19 18 19 19 18 19 19 20 20 20 21 22 23 23 23 23 23 23 22 22 22 21 21 21 20 20 20 19 19 19 19 19 18 18 18 18 18
18 19 21 22 22 21 19 18 19 17 18 19 19 19 20 20 20 20 21 22 22 23 23 23 23 22 22 21 21 21 21 20 20 20 19 19 19 18 18 18 18 18 18 18
18 20 21 22 22 21 20 17 16 17 18 19 21 20 20 21 20 20 19 20 21 22 22 22 22 22 22 22 21 21 21 20 20 20 19 19 19 18 18 18 18 18 18 17
19 19 21 21 22 21 19 19 16 15 17 18 19 20 20 20 20 19 19 20 21 22 22 22 22 22 21 21 21 20 20 20 20 20 19 19 19 18 18 18 18 18 17 17
18 17 18 20 21 21 20 18 17 18 18 16 18 19 20 19 19 19 20 20 21 21 22 22 22 22 21 21 20 20 20 20 20 20 19 19 19 18 18 18 17 17 17 17
18 16 18 19 20 20 20 19 18 16 15 15 18 20 19 18 19 19 19 20 20 21 21 21 21 21 20 20 20 20 20 20 20 19 19 19 18 18 18 18 17 17 17 17
17 16 17 18 19 19 20 19 18 17 17 17 18 20 20 19 18 18 19 19 20 21 21 21 20 20 20 20 20 20 20 20 19 19 19 18 18 18 18 17 17 17 17 17
17 17 17 18 19 20 21 20 19 19 18 18 19 19 20 19 18 18 19 19 19 20 20 20 20 20 20 20 20 20 19 19 19 19 18 18 18 18 17 17 17 17 17 17
15 17 18 19 20 20 20 20 20 20 19 19 20 20 19 18 19 18 18 18 19 20 20 20 20 20 20 20 20 19 19 19 18 18 18 18 18 17 17 17 17 16 16 16
14 16 16 17 19 20 19 19 20 19 19 19 20 20 18 17 17 17 18 18 19 19 19 20 20 20 20 19 19 19 18 18 18 18 17 17 17 17 17 16 16 16 16 16
14 14 14 16 19 19 19 19 19 19 18 18 18 18 17 17 17 18 19 19 19 19 19 19 20 19 19 19 19 18 18 18 17 17 17 17 17 17 16 16 16 16 16 16
13 14 14 14 16 18 19 19 18 18 18 17 17 17 16 17 17 17 18 19 19 19 19 19 19 19 19 18 18 18 17 17 17 17 17 17 16 16 16 16 16 16 15 15
13 13 14 14 17 18 18 19 18 19 18 18 17 16 16 17 17 16 18 18 19 19 19 19 18 18 18 18 17 17 17 17 16 16 16 16 16 16 16 15 15 15 15 15
14 13 14 15 16 17 17 17 18 19 18 18 17 17 17 17 17 18 18 18 18 18 18 18 18 17 17 17 17 17 17 16 16 16 16 16 15 15 15 15 15 14 14 14
13 14 13 13 16 17 17 17 17 17 17 17 17 17 17 17 17 17 17 17 17 17 17 17 17 17 16 16 17 16 16 16 15 15 15 15 15 15 15 14 14 14 14 14
12 12 12 13 14 14 15 15 16 17 16 17 17 17 17 17 16 17 16 16 17 17 17 17 17 16 16 16 16 16 15 15 15 15 15 15 14 14 14 14 14 14 13 13
12 12 12 13 13 14 15 16 16 17 17 17 17 17 17 16 16 16 16 16 16 16 16 16 16 16 15 15 15 15 15 14 14 14 14 14 14 14 13 13 13 13 13 12
12 12 12 13 13 14 15 15 16 16 17 17 17 17 17 16 16 16 15 15 16 15 15 15 15 15 15 14 14 14 14 14 14 14 14 13 13 13 13 12 12 12 12 12
11 12 12 13 13 13 14 15 16 16 16 16 16 16 16 16 16 15 15 15 15 15 15 14 14 14 14 14 14 14 13 13 13 13 13 13 12 12 12 12 11 11 11 11

GEFSCGP_850_meantemp_186.txt.gz
Temperature
26 27 28 29 30 30 30 30 30 30 30 30 30 31 31 30 29 29 27 26 25 24 23 22 21 21 20 21 21 21 20 20 20 19 19 19 18 18 18 18 18 18 18 18
26 27 29 29 29 29 29 29 30 30 29 30 30 31 31 30 29 29 28 27 26 25 24 22 21 21 21 21 21 21 20 20 20 20 19 19 18 18 18 18 18 18 18 18
27 28 28 27 27 28 29 29 29 29 29 30 30 30 30 30 29 28 28 27 27 26 24 23 21 21 21 21 21 21 21 20 20 20 19 19 18 18 18 18 18 18 18 18
27 27 27 27 27 28 28 29 29 29 29 30 30 30 31 31 30 29 28 28 27 26 25 23 22 21 21 21 21 21 21 21 20 20 19 19 18 18 18 18 18 18 18 18
27 27 26 27 28 28 29 28 28 29 29 29 29 30 31 31 30 30 29 28 27 26 25 24 23 22 21 21 21 21 21 21 20 20 20 19 19 18 18 18 18 18 18 18
27 27 27 28 28 28 28 28 28 28 29 28 29 29 30 31 31 31 30 28 27 26 25 24 23 22 21 21 20 20 21 21 20 20 20 19 19 19 18 18 18 18 18 18
25 26 27 28 27 27 27 27 27 27 27 28 29 29 30 31 31 30 30 29 27 26 25 24 23 22 21 21 21 20 21 21 20 20 20 19 19 19 19 19 18 18 18 18
25 25 26 27 28 27 27 28 28 27 28 29 28 28 31 30 29 28 28 27 27 26 25 24 23 23 22 21 21 21 21 21 20 20 20 20 19 19 19 19 18 18 18 18
26 26 27 27 28 28 27 28 30 29 29 29 29 29 30 30 29 29 28 27 27 26 25 24 23 23 22 21 21 21 21 21 20 20 20 20 19 19 19 18 18 18 18 18
27 26 26 27 27 28 29 29 28 28 27 27 28 28 30 29 29 29 29 28 27 26 25 24 23 22 22 21 21 20 20 20 20 20 20 19 19 19 19 19 18 18 18 18
27 26 26 26 26 27 27 27 28 28 28 28 28 29 31 30 29 29 29 27 26 25 25 24 23 22 21 21 20 20 20 20 20 20 20 19 19 19 19 18 18 18 18 18
27 27 26 26 27 28 28 28 28 27 27 28 29 29 29 29 29 28 28 26 25 25 24 24 23 22 21 20 20 20 19 19 19 19 19 19 19 19 18 18 18 18 18 18
26 26 25 25 26 26 27 28 28 28 28 28 28 29 28 28 28 27 27 25 24 23 23 23 22 21 21 20 20 19 19 19 19 19 19 19 18 18 18 18 18 18 17 17
26 25 26 26 27 27 26 27 28 28 27 28 28 29 28 28 28 27 26 24 23 23 22 22 21 20 20 20 19 19 19 19 19 19 19 18 18 18 18 18 18 17 17 17
25 25 26 27 27 27 27 27 27 27 28 28 29 29 29 29 28 27 25 24 23 22 22 21 20 20 19 19 19 19 19 19 19 19 18 18 18 18 18 18 17 17 17 17
25 25 25 25 26 27 27 27 28 28 28 28 29 29 29 27 26 25 24 24 23 22 21 21 20 19 19 19 19 18 18 18 18 18 18 18 18 17 17 17 17 17 17 16
24 24 24 25 26 26 26 27 27 28 28 28 28 28 28 27 26 25 24 23 23 22 21 20 19 19 18 18 18 18 18 18 18 18 17 17 17 17 17 17 17 17 16 16
23 23 24 25 25 24 26 27 28 27 28 28 28 28 27 26 24 23 23 22 22 21 20 19 19 18 18 18 18 18 18 17 17 17 17 17 16 16 16 16 16 16 16 15
23 23 24 25 24 25 25 26 26 26 26 27 27 27 26 24 23 23 22 21 21 20 19 19 18 18 18 18 18 18 17 17 17 17 17 16 16 16 16 16 16 15 15 15
22 23 24 24 24 24 26 26 25 26 26 26 25 25 24 24 26 24 21 20 19 19 18 18 18 18 18 18 17 17 17 17 16 16 16 16 16 16 16 15 15 15 15 15
22 22 23 24 24 25 25 24 24 25 25 24 24 24 24 24 25 21 19 19 18 18 17 17 17 17 17 17 17 17 16 16 16 16 16 16 16 15 15 15 15 14 14 14
22 23 23 23 23 24 23 24 24 23 21 22 22 22 22 21 20 19 18 17 17 17 17 17 17 17 17 17 16 16 16 16 15 15 15 15 15 15 15 15 14 14 14 13
22 23 24 23 23 21 21 21 20 19 20 20 20 20 20 19 19 18 17 17 16 16 16 16 16 16 16 16 16 16 15 15 15 15 15 15 14 14 14 14 13 13 13 13
20 20 21 21 21 20 19 19 19 19 19 19 19 19 19 19 18 17 16 16 16 16 16 15 15 16 15 15 15 15 15 15 15 14 14 14 14 13 13 13 13 13 12 12
20 20 20 20 19 19 19 18 18 18 18 18 18 18 18 18 17 16 16 15 15 15 15 15 15 15 14 14 14 14 14 14 14 14 13 13 13 13 13 12 12 12 12 11
19 20 21 20 19 20 18 17 17 17 17 17 17 17 17 17 16 16 15 15 15 15 15 15 14 14 14 14 14 14 13 13 13 13 13 13 13 12 12 12 11 11 11 11

GEFSCGP_850_meantemp_192.txt.gz
Temperature
29 30 30 31 32 33 33 33 33 34 35 34 33 32 32 32 32 31 30 29 28 27 26 25 24 23 22 21 21 21 20 20 20 20 20 20 19 19 19 19 19 19 18 18
30 29 31 33 33 33 33 33 33 34 34 33 33 32 32 32 33 32 31 30 29 28 27 25 24 23 22 22 21 21 21 20 20 20 20 19 19 19 19 19 19 19 19 18
30 31 32 32 32 32 32 32 33 33 34 34 33 32 32 33 33 32 32 31 30 28 27 25 24 23 22 22 21 21 21 21 21 20 20 19 19 19 19 19 19 19 19 19
30 32 32 32 32 32 31 33 33 33 32 32 32 31 32 33 33 33 32 31 30 29 28 26 24 23 23 22 22 21 21 21 21 20 20 19 19 19 19 19 19 19 19 19
30 31 31 31 32 32 32 33 33 32 32 32 32 31 32 33 32 33 32 32 31 30 28 27 25 24 23 22 22 21 21 21 21 20 20 20 19 19 19 19 19 19 19 19
31 32 32 32 32 33 33 32 32 32 32 30 31 31 31 33 32 33 33 32 31 30 29 27 26 24 23 23 22 21 21 21 21 21 20 20 20 19 19 19 19 19 19 19
29 31 32 32 31 32 32 30 29 29 29 29 31 31 31 33 34 33 33 32 31 30 29 28 26 25 24 23 22 21 21 21 21 21 21 20 20 20 19 19 19 19 19 19
28 29 31 31 31 31 31 30 29 28 29 30 31 31 32 34 34 33 33 32 31 30 29 28 27 25 24 23 22 22 21 21 21 21 21 21 20 20 20 20 19 19 19 19
29 29 31 32 32 31 30 30 31 30 30 30 31 32 33 33 33 33 32 32 31 30 29 28 27 26 25 23 23 22 21 21 21 21 21 20 20 20 20 20 19 19 19 19
30 29 31 31 31 31 32 31 31 30 28 29 30 31 31 31 32 33 32 32 31 30 29 28 27 26 25 24 23 22 21 21 21 20 20 20 20 20 20 19 19 19 19 19
30 29 30 30 30 30 30 31 30 30 30 29 29 30 33 31 32 32 32 31 30 30 29 28 27 26 25 24 23 22 21 21 20 20 20 20 20 20 19 19 19 19 19 19
30 29 29 30 31 31 31 31 30 29 29 29 29 29 32 32 32 32 31 30 30 29 28 27 26 25 24 24 23 22 21 20 20 20 20 19 19 19 19 19 19 18 18 18
29 28 27 28 29 30 30 31 31 30 30 29 29 29 31 32 32 32 31 30 29 28 27 26 25 25 24 23 23 22 21 21 20 19 19 19 19 19 19 18 18 18 18 18
29 28 28 28 29 29 29 30 31 30 29 29 30 29 30 31 31 31 30 29 28 27 26 25 25 24 23 23 22 22 21 20 20 19 19 19 19 18 18 18 18 18 18 18
28 27 28 29 30 30 30 30 30 30 30 30 30 30 30 30 30 30 29 28 28 27 26 25 24 23 22 22 21 21 21 20 20 19 19 18 18 18 18 18 18 18 18 17
27 27 27 27 29 30 30 30 31 31 31 31 30 30 31 30 30 29 29 28 27 26 25 24 23 22 22 21 21 20 20 19 19 19 18 18 18 18 18 17 17 17 17 17
27 25 26 27 28 29 28 30 30 30 31 31 30 30 30 30 29 28 28 27 26 25 24 23 22 21 21 20 20 20 19 19 18 18 18 18 18 17 17 17 17 17 17 17
26 25 25 26 27 26 29 31 31 31 31 31 30 30 30 29 28 27 27 26 26 25 24 23 22 21 20 20 19 19 18 18 18 18 17 17 17 17 17 16 16 16 16 16
26 25 25 25 26 27 29 30 31 30 29 30 29 29 29 29 28 27 26 25 24 23 23 22 21 20 20 19 19 18 18 18 18 17 17 17 17 17 16 16 16 16 16 15
26 25 24 25 25 25 28 30 31 30 28 28 28 27 27 28 27 26 25 24 23 22 22 21 20 20 19 19 18 18 18 17 17 17 17 17 16 16 16 16 15 15 15 15
24 24 24 24 24 26 28 30 30 27 26 27 27 27 27 27 26 25 24 23 22 21 20 20 19 19 18 18 18 18 17 17 17 16 16 16 16 16 15 15 15 15 15 15
24 24 23 24 24 24 27 28 27 26 26 26 26 26 25 24 24 23 22 21 21 20 19 19 18 18 18 17 17 17 17 16 16 16 16 15 15 15 15 15 14 14 14 14
25 24 24 23 24 24 24 24 24 25 25 25 25 25 24 23 23 22 21 20 20 19 18 18 18 17 17 17 17 16 16 16 16 15 15 15 15 15 14 14 14 14 14 13
24 25 23 23 23 24 23 23 23 24 24 23 24 23 23 22 22 21 20 19 19 18 18 17 17 17 16 16 16 16 16 15 15 15 14 14 14 14 14 14 14 13 13 13
23 24 23 22 23 23 23 22 22 22 22 23 22 22 22 21 21 20 19 18 18 18 17 17 16 16 15 15 15 15 15 15 15 14 14 14 14 14 14 14 13 13 13 13
23 23 23 22 22 22 21 21 21 21 21 21 21 21 20 20 20 19 18 18 17 17 17 16 16 15 15 15 15 15 15 15 14 14 14 13 13 13 13 13 13 13 13 12

GEFSCGP_850_meantemp_198.txt.gz
Temperature
26 23 22 23 23 25 26 27 27 27 29 28 26 25 25 26 26 25 25 24 24 24 24 24 23 23 22 22 21 21 21 21 20 20 20 19 19 19 19 19 19 19 19 19
23 22 23 24 26 26 26 26 26 27 28 28 26 26 26 26 25 25 25 25 24 24 24 23 23 23 22 22 22 21 21 21 20 20 20 20 20 19 19 19 19 19 19 19
22 23 25 26 26 26 26 26 27 27 27 27 26 25 25 25 26 26 26 25 25 24 24 24 23 23 23 22 22 22 21 21 21 20 20 20 19 19 19 19 19 19 19 19
23 25 26 26 26 27 25 27 28 28 26 24 25 23 24 24 24 25 25 25 25 24 24 24 24 23 23 23 22 22 22 21 21 20 20 20 20 19 20 20 19 19 19 19
23 25 26 26 27 27 27 28 28 27 25 24 24 23 23 23 23 24 25 25 25 25 24 24 24 24 23 23 22 22 22 21 21 20 20 20 20 20 20 19 19 19 19 19
24 26 26 27 28 28 28 27 25 22 21 23 24 24 23 22 24 25 25 26 25 25 25 24 24 24 23 23 22 22 22 21 21 21 20 20 20 20 19 19 19 19 19 19
24 25 26 28 27 27 26 22 21 22 20 22 23 24 23 24 25 25 25 26 26 25 25 24 24 23 23 23 22 22 22 21 21 21 20 20 20 20 20 19 19 19 19 19
22 23 25 27 26 25 25 22 21 22 22 21 23 24 24 25 26 27 27 27 26 25 25 24 24 24 23 23 23 22 22 22 21 21 21 20 20 20 19 19 19 19 19 19
21 22 25 27 27 26 25 22 21 20 22 22 22 23 24 25 25 25 26 26 26 26 25 25 24 24 24 23 23 23 22 22 21 21 21 20 20 20 19 19 19 19 19 19
22 23 25 27 27 26 25 23 20 20 21 22 23 23 23 24 24 24 24 24 25 25 25 24 24 24 24 24 23 23 22 22 22 21 21 20 20 20 19 19 19 19 18 18
23 22 23 25 25 25 25 24 21 18 19 20 22 22 24 23 23 23 23 24 25 25 24 24 24 24 23 23 23 22 22 21 21 21 21 20 20 19 19 19 18 18 18 18
22 20 20 23 24 25 25 23 20 21 21 19 20 21 24 23 23 24 24 24 25 24 24 24 23 23 23 22 22 22 22 21 21 21 20 20 19 19 19 19 18 18 18 18
22 19 20 22 23 24 25 24 21 19 19 19 20 22 23 23 23 24 24 24 24 24 24 23 23 23 22 22 22 22 21 21 20 20 20 19 19 19 19 18 18 18 18 18
22 19 19 21 21 22 24 25 23 20 20 20 21 22 23 23 22 23 24 24 24 23 23 23 23 22 22 22 22 21 21 20 20 20 19 19 19 19 19 18 18 18 18 17
21 20 21 21 23 24 25 25 24 23 21 21 22 22 22 22 22 23 23 23 23 23 23 23 22 22 22 22 21 21 21 20 20 20 19 19 19 18 18 18 18 17 17 17
19 20 21 22 24 25 25 25 25 25 24 23 23 22 22 22 23 23 23 23 22 22 22 22 22 22 22 22 21 21 20 20 20 19 19 19 18 18 18 17 17 17 17 16
18 19 19 20 22 23 23 24 25 25 24 23 23 22 22 21 22 22 22 22 22 22 22 22 22 22 22 21 21 20 20 19 19 19 18 18 18 18 17 17 17 16 16 16
18 17 16 18 21 22 21 22 24 24 24 23 22 22 22 22 22 23 23 23 23 22 22 22 21 21 21 20 20 20 19 19 19 18 18 17 17 17 17 16 16 16 16 16
17 17 17 17 19 21 22 23 23 23 22 22 22 22 22 22 22 21 23 24 23 23 22 22 21 21 20 20 19 19 19 18 18 18 17 17 17 16 16 16 16 15 15 15
17 17 17 17 19 20 21 22 24 22 20 21 21 21 21 21 19 20 22 22 22 22 22 21 21 20 20 19 19 19 18 18 18 17 17 17 16 16 16 15 15 15 15 15
17 17 17 17 19 19 20 22 23 21 20 21 22 22 22 21 21 22 22 22 22 21 21 21 20 20 19 19 18 18 18 18 17 17 17 16 16 16 16 15 15 15 15 14
16 16 16 16 18 18 20 20 20 19 21 22 23 23 23 23 22 22 22 21 21 21 20 20 19 19 18 18 18 18 17 17 17 16 16 16 15 15 15 15 14 14 14 14
16 16 15 16 16 18 20 20 20 21 21 22 22 23 23 22 21 21 21 21 20 20 19 19 19 18 17 17 17 17 17 16 16 16 15 15 15 15 14 14 14 14 14 14
16 16 15 16 17 18 20 20 21 21 22 22 22 22 22 21 20 20 20 20 19 19 19 18 18 18 17 17 17 17 16 16 16 15 15 15 15 14 14 14 14 13 13 13
16 15 15 16 16 18 19 20 20 21 21 21 21 21 21 21 20 19 19 19 19 18 18 18 18 17 17 16 16 16 16 15 15 15 15 14 14 14 14 13 13 13 13 13
15 15 15 15 16 16 17 19 20 20 20 21 20 20 20 20 19 19 19 18 18 18 17 17 17 17 16 16 15 15 15 15 15 15 14 14 14 13 13 13 13 13 12 12

GEFSCGP_850_meantemp_204.txt.gz
Temperature
23 21 21 22 22 23 24 24 24 24 24 25 24 23 22 22 22 22 21 21 21 22 22 22 22 22 21 21 21 21 20 20 19 19 19 19 19 19 19 19 18 18 18 18
20 21 22 22 23 24 24 24 24 24 24 24 23 23 22 22 22 22 22 22 22 22 22 22 22 22 22 21 21 21 20 20 20 20 19 19 19 19 19 19 18 18 18 18
22 22 22 23 23 24 24 24 24 24 24 23 24 23 22 22 22 22 22 22 22 22 23 22 22 22 22 22 21 21 21 20 20 20 19 19 19 19 19 19 19 18 18 18
22 22 23 23 23 23 23 24 24 24 23 21 23 22 22 21 21 21 22 22 23 23 23 23 23 22 22 22 22 21 21 20 20 20 19 19 19 19 19 19 19 18 18 18
21 22 23 23 24 23 24 23 23 23 22 21 21 21 21 20 21 21 22 22 23 23 23 23 23 23 23 22 22 21 21 21 20 20 20 19 19 19 19 19 19 18 18 18
21 23 23 24 24 24 23 22 20 18 19 21 21 21 21 20 21 21 22 23 23 23 23 24 24 23 23 22 22 22 21 21 20 20 20 19 19 19 19 19 19 19 18 18
22 23 23 24 24 23 22 20 20 21 19 20 20 21 20 21 21 22 22 23 24 24 24 24 23 23 23 22 22 22 21 21 20 20 20 20 20 19 19 19 19 19 18 18
20 21 23 23 23 22 21 21 20 21 20 19 20 20 21 22 22 23 23 24 24 24 24 24 24 24 23 23 22 22 22 21 21 20 20 20 20 19 19 19 19 19 18 18
19 20 22 23 23 22 21 20 19 18 19 20 20 20 21 22 22 22 23 23 24 24 24 24 24 24 24 23 23 22 22 21 21 20 20 20 20 19 19 19 19 18 18 18
19 21 22 23 23 21 20 18 17 18 19 20 22 21 21 22 22 21 21 22 24 24 24 24 24 24 23 23 23 22 22 21 21 20 20 20 20 19 19 19 18 18 18 18
20 20 21 22 23 22 20 19 17 16 17 19 21 21 21 21 21 20 20 22 23 24 24 24 24 23 23 23 22 22 22 21 21 20 20 20 19 19 19 19 19 18 18 18
18 17 19 21 22 22 21 19 17 19 18 17 18 20 21 20 20 20 21 22 23 24 24 24 23 23 22 22 22 22 21 21 21 20 20 20 19 19 19 19 18 18 18 18
18 17 19 20 20 21 21 19 18 16 15 16 19 21 20 20 20 21 21 22 23 23 23 23 23 23 22 22 22 22 21 21 21 20 20 20 19 19 19 18 18 18 18 17
18 16 18 19 19 20 21 20 18 18 17 17 18 21 20 20 20 20 21 22 23 23 23 23 22 22 22 22 22 21 21 21 20 20 20 19 19 19 19 18 18 18 17 17
18 18 18 19 20 21 22 21 19 20 18 19 19 19 20 19 19 20 21 21 22 22 22 22 22 22 22 22 21 21 21 20 20 20 19 19 19 18 18 18 18 17 17 17
16 18 19 20 21 21 22 21 20 21 19 20 20 20 19 20 20 20 21 21 22 22 22 22 22 22 22 21 21 21 20 20 19 19 19 19 18 18 18 17 17 17 16 16
14 16 17 18 20 22 21 21 20 20 20 20 20 20 19 19 19 20 21 21 22 22 22 22 22 22 21 21 21 20 20 19 19 19 19 18 18 18 17 17 16 16 16 16
14 14 14 16 20 20 20 20 20 20 20 19 20 19 19 20 21 21 22 22 22 22 22 22 22 22 21 21 20 20 19 19 19 18 18 18 17 17 17 16 16 15 15 15
13 14 14 15 17 19 20 20 20 20 20 19 19 19 19 20 20 20 21 22 23 23 22 22 22 21 21 20 20 19 19 18 18 18 18 17 17 17 16 16 15 15 15 15
13 13 14 15 18 18 19 20 20 20 20 19 18 18 19 19 19 20 22 22 22 22 22 22 21 21 20 20 19 19 18 18 18 17 17 16 16 16 16 15 15 15 14 14
15 14 15 15 17 17 18 19 20 20 19 20 19 19 19 19 21 23 23 22 22 22 22 21 21 20 20 19 19 18 18 18 17 17 16 16 15 15 15 15 15 14 14 14
14 14 14 14 17 18 18 18 18 18 19 20 20 20 20 21 22 22 22 22 21 21 21 21 20 20 19 19 18 18 18 17 17 16 16 15 15 15 15 14 14 14 14 14
13 13 13 14 15 16 17 18 19 19 19 20 20 21 21 21 21 21 21 21 20 20 20 20 20 19 18 18 18 17 17 16 16 16 15 15 15 15 14 14 14 14 13 13
13 12 12 14 15 16 17 18 19 19 19 20 20 20 20 20 20 20 20 19 19 19 19 19 19 18 18 17 17 17 16 16 16 15 15 15 15 14 14 14 13 13 13 13
13 13 13 14 15 16 17 17 18 19 20 20 20 20 20 20 20 19 19 19 19 19 19 18 18 18 17 17 16 16 16 16 15 15 15 15 14 14 14 13 13 13 13 12
12 13 13 14 15 14 16 17 18 19 20 20 19 19 20 20 20 19 18 18 18 18 18 18 18 17 17 17 16 16 15 15 15 15 15 14 14 14 13 13 13 12 12 12

GEFSCGP_850_meantemp_210.txt.gz
Temperature
29 31 31 32 32 32 32 32 32 32 32 31 31 31 31 29 28 28 27 26 26 25 24 22 22 21 20 20 20 20 19 19 19 19 18 18 18 18 18 18 18 18 18 18
29 30 31 31 31 31 32 32 32 31 31 31 31 31 31 30 29 28 28 27 26 25 24 23 22 21 20 20 20 20 20 20 19 19 19 18 18 18 18 18 18 18 18 18
30 30 30 30 30 30 31 31 31 31 31 31 31 31 31 30 29 28 28 27 27 26 25 23 22 22 21 21 20 20 20 20 20 19 19 18 18 18 18 18 18 18 18 18
30 29 29 30 30 30 30 31 31 31 31 31 31 31 31 31 30 29 28 27 27 26 25 24 23 22 21 21 21 21 21 20 20 20 19 18 18 19 18 18 18 18 18 18
29 28 29 29 30 30 31 30 31 31 31 31 31 31 32 31 31 30 29 28 27 26 26 24 23 23 22 22 21 21 21 21 20 20 19 19 19 19 18 18 18 18 18 18
29 29 29 30 30 30 30 30 30 30 31 30 30 30 31 32 31 31 30 29 28 27 26 25 24 23 22 22 21 21 21 21 21 20 20 20 19 19 19 18 18 18 18 18
27 28 29 29 29 29 30 30 29 29 29 29 30 30 31 32 31 31 30 29 28 27 26 25 24 23 22 22 22 21 21 21 21 20 20 20 19 19 19 19 18 18 18 18
27 27 28 29 29 29 29 30 29 29 29 30 29 30 31 31 30 29 29 28 28 27 26 25 24 23 23 22 22 21 22 22 21 21 20 20 20 19 19 19 19 18 18 18
28 28 29 29 30 30 29 30 31 30 30 30 30 30 31 31 30 30 29 28 28 27 26 25 25 24 23 23 22 22 21 21 21 21 20 20 20 19 19 19 19 18 18 18
29 28 28 28 29 29 30 30 30 30 28 29 29 30 30 30 30 30 29 28 27 26 26 25 24 24 23 22 22 21 21 21 21 21 20 20 20 19 19 19 18 18 18 18
28 28 27 28 28 29 29 29 30 30 30 29 29 30 31 30 30 29 29 28 27 26 25 25 24 23 22 22 22 21 21 20 20 20 20 20 19 19 19 19 18 18 18 18
28 28 28 28 29 29 30 30 29 29 28 29 30 30 30 30 29 29 28 27 26 25 25 24 23 23 22 21 21 21 20 20 20 20 20 20 19 19 19 19 18 18 18 18
27 27 26 27 27 28 28 29 30 30 29 29 29 30 29 29 29 28 27 26 25 24 24 23 22 22 21 21 21 20 20 20 20 19 19 19 19 19 19 19 18 18 18 18
26 26 27 28 28 28 28 28 29 29 29 29 29 30 29 29 29 27 26 25 25 24 23 22 22 21 21 20 20 20 20 19 19 19 19 19 19 19 19 18 18 18 17 17
26 26 27 28 29 29 29 28 29 29 29 29 30 30 30 29 28 27 26 25 24 24 23 22 21 21 21 20 20 20 19 19 19 19 19 19 19 18 18 18 18 17 17 17
25 26 26 27 27 28 28 28 29 29 29 30 30 30 30 29 27 26 25 25 24 24 23 22 21 21 20 20 20 20 19 19 19 19 19 18 18 18 18 17 17 17 16 16
25 25 25 26 27 27 27 28 28 29 29 29 29 29 29 28 27 26 25 25 24 23 23 22 21 21 20 20 20 19 19 19 19 18 18 18 18 18 17 17 16 16 16 16
24 24 25 26 26 25 27 29 29 29 29 29 29 29 28 27 26 25 25 24 24 23 22 22 21 21 20 20 19 19 19 19 18 18 18 18 17 17 17 17 16 16 16 15
24 24 25 26 25 26 26 27 27 27 27 28 28 27 27 26 25 25 24 24 23 23 22 21 21 21 20 20 19 19 19 18 18 18 17 17 17 17 16 16 16 15 15 15
22 23 25 25 25 25 27 27 26 27 26 27 27 26 26 25 27 26 24 23 22 22 21 21 21 20 20 20 19 19 18 18 18 17 17 17 16 16 16 16 15 15 15 14
23 23 24 25 25 26 27 25 25 26 26 26 25 25 25 25 26 24 22 22 21 21 21 21 20 20 20 19 19 18 18 17 17 17 16 16 16 16 15 15 15 14 14 14
24 24 24 25 25 25 25 25 26 25 23 24 24 24 24 23 23 22 21 21 20 20 20 20 20 19 19 19 18 18 17 17 17 16 16 16 15 15 15 15 14 14 14 13
24 24 25 25 25 23 23 24 22 22 22 22 23 22 22 22 22 21 21 20 20 19 19 19 19 19 19 18 18 18 17 17 16 16 16 15 15 15 14 14 14 13 13 13
22 21 23 23 23 22 21 21 20 20 21 21 21 21 21 21 21 21 20 19 19 19 19 19 19 19 18 18 17 17 17 17 16 16 15 15 15 14 14 14 13 13 13 12
21 21 22 22 22 22 21 20 20 20 20 20 20 20 20 20 20 20 19 19 19 18 18 18 18 18 18 17 17 17 16 16 16 15 15 14 14 14 14 13 13 13 12 12
21 22 22 23 21 22 21 20 19 20 20 20 20 19 19 19 19 19 18 18 18 18 18 18 17 17 17 17 16 16 16 16 16 15 15 14 14 14 13 13 13 12 12 12

GEFSCGP_850_meantemp_216.txt.gz
Temperature
32 33 33 34 35 35 35 34 34 34 35 34 34 33 33 33 32 31 30 29 27 26 25 24 24 23 22 21 21 20 20 20 19 19 19 19 19 19 19 19 19 19 19 19
32 32 34 35 35 35 35 34 34 34 35 34 33 33 34 33 33 32 31 30 28 27 26 25 24 23 22 21 21 20 20 20 20 20 19 19 19 19 19 19 19 19 19 19
32 33 35 34 34 34 34 34 34 34 34 34 33 32 33 33 33 32 31 30 29 27 26 25 24 23 22 21 21 21 21 20 20 20 20 19 19 19 19 19 19 19 19 19
33 34 34 34 33 34 33 35 35 34 34 33 33 31 32 32 33 33 32 31 30 28 27 25 24 23 22 22 21 21 21 21 20 20 20 19 19 19 20 19 19 19 19 19
32 33 33 33 34 34 34 35 34 34 33 33 33 32 31 32 31 32 32 31 30 29 27 26 25 24 23 22 21 21 21 21 21 20 20 20 19 19 19 19 19 19 19 19
33 34 34 34 34 34 34 34 34 34 33 32 33 32 31 32 32 33 33 31 30 29 28 27 25 24 23 23 22 21 21 21 21 21 20 20 20 20 19 19 19 19 19 19
31 33 34 34 33 34 33 32 31 31 31 31 33 33 31 33 34 33 33 32 31 30 28 27 26 25 24 23 22 22 21 21 21 21 20 20 20 20 19 19 19 19 19 19
30 31 33 33 33 33 32 32 31 30 30 31 33 32 33 34 34 33 32 32 31 30 29 28 26 25 24 23 23 22 22 21 21 21 20 20 20 20 19 19 19 19 19 19
31 31 33 33 34 33 32 32 33 32 32 31 32 32 33 34 33 33 32 32 31 30 29 28 27 26 24 24 23 22 22 21 21 20 20 20 20 20 19 19 19 19 19 19
32 31 33 33 33 33 33 33 33 32 30 30 31 32 32 32 32 33 32 32 31 30 29 28 27 26 25 24 23 22 22 21 21 20 20 20 20 20 20 19 19 19 19 19
32 31 31 32 31 32 32 32 32 32 31 30 30 31 33 32 33 32 32 31 30 30 29 28 27 26 25 24 23 22 22 21 21 20 20 20 19 19 19 19 19 19 19 18
31 31 30 31 33 33 33 32 32 30 30 30 30 30 33 33 33 32 31 30 30 29 28 27 26 25 24 23 23 22 21 21 20 20 20 19 19 19 19 19 19 19 18 18
31 30 29 30 31 32 32 32 32 32 31 30 30 30 33 32 32 32 31 29 28 28 27 27 25 24 24 23 22 22 21 20 20 20 19 19 19 19 19 19 19 18 18 18
30 29 29 29 30 31 31 31 32 32 30 30 31 30 31 32 31 31 30 29 28 27 26 26 25 24 23 22 22 21 21 20 20 20 19 19 19 19 18 18 18 18 18 18
30 29 29 30 31 32 32 31 32 31 31 31 32 32 31 31 31 30 29 28 28 26 26 25 24 23 23 22 21 21 21 20 20 19 19 19 19 18 18 18 17 17 17 17
29 28 29 29 30 31 31 32 32 32 32 32 32 32 33 32 30 30 29 28 27 26 25 24 23 23 22 22 21 21 20 20 20 19 19 19 18 18 17 17 17 17 17 17
28 27 27 28 30 30 30 31 32 32 32 32 31 31 31 31 30 29 28 28 27 26 25 24 23 22 22 22 21 21 20 20 19 19 19 18 18 18 17 17 17 17 16 16
27 26 26 27 28 27 30 32 32 32 32 32 32 32 31 30 30 29 28 27 27 26 25 24 23 22 22 21 21 20 20 19 19 19 18 18 18 17 17 17 17 16 16 16
27 26 26 27 27 28 30 31 32 31 31 32 32 31 30 30 29 28 27 27 26 25 24 23 23 22 21 21 20 20 19 19 19 18 18 18 17 17 17 16 16 16 16 15
27 26 26 26 26 27 29 31 31 31 29 31 31 30 29 29 28 27 26 26 25 24 24 23 22 22 21 20 20 19 19 19 18 18 18 17 17 17 16 16 16 15 15 15
25 25 25 25 26 27 29 30 30 28 28 30 30 29 29 28 28 26 26 25 24 24 23 22 22 21 21 20 19 19 19 18 18 18 17 17 17 16 16 16 16 15 15 14
25 25 25 25 26 26 29 29 28 27 28 28 28 28 27 27 26 25 25 24 24 23 22 22 21 20 20 20 19 19 18 18 18 18 17 17 16 16 16 15 15 15 14 14
25 26 26 26 26 26 27 26 26 26 27 27 27 27 26 26 25 24 24 23 23 22 22 21 20 20 19 19 19 19 18 18 18 17 17 16 16 15 15 15 15 14 14 14
25 26 26 25 25 26 26 25 25 25 26 26 26 25 25 25 24 23 23 22 22 21 21 20 20 19 19 19 18 18 18 18 17 17 16 16 15 15 15 15 15 14 14 14
25 25 25 24 25 25 25 24 24 24 24 25 25 24 24 24 23 23 22 21 21 21 20 20 19 19 19 19 18 18 18 17 17 16 16 16 15 15 15 15 14 14 14 14
24 24 24 23 24 24 24 23 24 24 24 24 24 23 23 23 22 22 21 21 20 20 19 19 19 18 18 18 18 17 17 17 17 16 16 15 15 15 15 14 14 14 14 14

GEFSCGP_850_meantemp_222.txt.gz
Temperature
29 25 25 25 26 27 27 27 27 28 28 27 26 25 25 25 25 25 24 24 23 23 23 23 22 22 21 21 21 20 20 20 20 20 19 19 19 19 19 19 19 19 19 19
25 25 26 27 28 28 28 27 27 28 28 27 26 25 25 25 25 25 24 24 24 23 23 22 22 22 22 21 21 21 20 20 20 20 20 19 19 19 19 19 19 19 19 19
25 26 28 29 28 28 28 27 27 27 27 27 26 25 24 25 26 25 25 25 24 24 23 23 22 22 22 21 21 21 21 20 20 20 20 19 19 19 19 19 19 19 19 19
26 27 29 28 29 29 27 29 29 28 26 24 25 23 24 24 24 25 25 25 24 24 23 23 23 22 22 22 22 21 21 21 20 20 20 20 19 19 19 19 19 19 19 19
26 28 28 28 29 29 28 29 29 28 25 24 24 23 23 23 23 24 24 25 25 24 24 23 23 23 23 22 22 21 21 21 21 20 20 20 20 19 19 19 19 19 19 19
26 28 28 29 29 30 29 27 26 23 22 24 24 23 23 22 24 24 25 25 25 24 24 24 23 23 22 22 22 21 21 21 21 20 20 20 20 19 19 19 19 19 19 19
26 27 28 29 29 28 27 23 23 24 22 23 24 24 23 24 25 25 25 25 25 25 24 24 23 23 23 22 22 21 21 21 20 20 20 20 20 19 19 19 19 19 19 19
24 24 27 29 28 27 26 23 22 23 23 23 24 24 24 25 26 27 27 26 26 25 25 24 24 24 23 23 22 22 21 21 21 20 20 20 20 19 19 19 19 19 19 19
23 24 27 29 29 28 27 24 22 21 23 23 23 24 25 25 25 26 26 25 25 25 25 24 24 24 23 23 23 22 21 21 21 20 20 20 19 19 19 19 18 18 18 18
24 25 26 28 29 28 27 25 21 22 22 23 24 24 23 24 24 24 24 25 25 25 24 24 24 24 23 23 22 22 21 21 21 20 20 20 19 19 19 19 18 18 18 18
24 24 25 26 27 27 27 26 22 19 20 21 23 23 25 24 24 24 24 25 25 25 25 24 24 23 23 23 22 22 21 21 21 20 20 20 19 19 19 19 18 18 18 18
23 21 22 24 26 27 26 25 22 22 22 20 21 22 25 24 24 24 24 25 25 25 25 24 24 23 23 22 22 22 21 21 21 20 20 19 19 19 19 18 18 18 18 18
23 20 22 23 24 26 27 26 23 20 20 20 21 23 24 24 24 25 25 24 24 24 24 24 24 23 23 22 22 21 21 21 20 20 20 19 19 19 19 18 18 18 18 17
23 20 21 22 22 24 26 26 25 22 21 22 22 23 24 23 23 24 24 24 24 24 24 24 23 23 23 22 22 21 21 20 20 20 20 19 19 19 18 18 18 18 17 17
22 21 23 23 24 26 26 26 26 24 22 22 23 23 23 23 23 24 24 24 23 23 24 23 23 23 23 22 21 21 21 20 20 20 20 19 19 18 18 18 18 17 17 17
19 21 22 23 25 25 26 26 26 26 25 24 24 24 23 24 24 24 24 23 23 23 23 23 23 23 22 22 21 21 20 20 20 20 20 19 19 18 18 18 17 17 17 17
18 20 20 21 23 24 24 25 26 26 25 25 24 23 23 23 23 23 23 24 23 23 23 23 23 23 23 22 22 21 21 20 20 20 19 19 18 18 18 17 17 17 16 16
18 18 17 19 22 23 22 24 26 25 25 24 24 23 23 23 24 24 25 24 24 24 23 23 23 23 22 22 21 21 21 20 19 19 19 18 18 18 17 17 17 16 16 16
18 18 17 17 20 22 23 25 25 24 24 23 23 22 23 23 23 23 24 25 25 24 24 24 23 23 22 22 21 21 20 20 19 19 18 18 18 18 17 17 16 16 16 16
17 17 17 18 20 21 22 24 26 24 23 23 23 22 22 23 20 21 24 24 24 24 24 23 23 22 22 21 21 20 20 19 19 19 18 18 18 18 17 17 16 16 15 15
18 18 18 18 20 20 22 24 25 23 22 23 24 23 23 22 22 23 24 24 24 24 23 23 22 22 22 21 20 20 20 19 19 19 18 18 17 17 17 16 16 16 15 15
17 17 17 17 19 20 22 23 22 21 23 24 24 24 24 24 24 23 23 23 23 23 22 22 22 22 21 21 20 20 20 19 19 18 18 17 17 17 16 16 15 15 15 15
17 17 16 17 18 20 22 22 23 24 23 23 24 24 24 23 23 23 23 23 22 22 22 22 22 21 21 20 20 20 19 19 18 18 17 17 16 16 16 15 15 15 15 14
17 16 16 17 18 20 22 22 23 23 23 23 24 24 24 23 23 22 22 22 22 21 21 21 21 21 20 20 19 19 19 19 18 18 17 17 16 16 15 15 15 15 15 14
16 16 16 17 17 19 21 21 22 22 23 23 23 23 23 23 22 22 22 21 21 21 21 21 21 20 20 20 19 19 18 18 18 17 17 16 16 15 15 15 15 15 15 14
15 15 15 16 17 17 19 21 22 22 22 22 22 22 22 22 22 22 21 21 21 21 21 20 20 20 20 19 19 18 18 18 17 17 16 16 16 15 15 15 15 14 14 14